Location: Unspecified
(0.0000°N, 0.0000°E)
Time: 15:25:30
(UTC+01:00)

Delta 168 - Visible Passes

Search period start: 08 February 2016 00:00
Search period end: 18 February 2016 00:00
Orbit: 395 x 2077 km, 25.3° (Epoch: 07 February)

Date Brightness Start Highest point End Pass type
(mag) Time Alt. Az. Time Alt. Az. Time Alt. Az.
08 Feb 5.6 21:02:23 10° NNW 21:03:47 14° NNW 21:03:47 14° NNW visible
09 Feb 5.1 20:52:52 10° NNW 20:56:04 20° N 20:56:04 20° N visible
10 Feb 6.6 06:44:17 10° S 06:48:12 15° SSE 06:52:51 10° ESE visible
10 Feb 4.6 20:43:25 10° NW 20:48:24 28° N 20:48:24 28° N visible
11 Feb 6.5 06:35:34 10° S 06:39:24 15° SSE 06:44:04 10° ESE visible
11 Feb 4.2 20:34:00 10° NW 20:40:13 36° NNE 20:40:46 35° NNE visible
12 Feb 6.4 06:26:49 10° S 06:30:37 16° SSE 06:35:17 10° ESE visible
12 Feb 4.0 20:24:35 10° NW 20:31:35 45° NNE 20:33:10 35° ENE visible
13 Feb 6.2 06:18:04 10° S 06:21:49 16° SSE 06:26:29 10° ESE visible
13 Feb 4.0 20:15:11 10° NW 20:22:52 55° NNE 20:25:36 28° E visible
13 Feb 6.4 22:15:09 10° W 22:15:47 12° W 22:15:47 12° W visible
14 Feb 6.1 06:09:18 10° S 06:13:01 17° SSE 06:17:42 10° ESE visible
14 Feb 4.0 20:05:47 10° WNW 20:14:07 66° NNE 20:18:03 20° ESE visible
14 Feb 6.1 22:06:18 10° W 22:08:14 17° WSW 22:08:14 17° WSW visible
15 Feb 5.9 06:00:33 10° SSW 06:04:13 18° SSE 06:08:54 10° ESE visible
15 Feb 4.1 19:56:22 10° WNW 20:05:18 78° NNE 20:10:29 13° ESE visible
15 Feb 5.8 21:57:27 10° W 22:00:40 21° WSW 22:00:40 21° WSW visible
16 Feb 5.8 05:51:47 10° SSW 05:55:24 19° SSE 06:00:06 10° ESE visible
16 Feb 4.3 19:46:59 10° WNW 19:56:26 89° NNE 20:02:28 10° ESE visible
16 Feb 5.7 21:48:35 10° W 21:53:05 22° SW 21:53:05 22° SW visible
17 Feb 5.6 05:43:02 10° SSW 05:46:36 21° SSE 05:51:17 10° E visible
17 Feb 4.6 19:37:35 10° WNW 19:47:31 81° SSW 19:53:53 10° ESE visible
17 Feb 5.7 21:39:44 10° WSW 21:44:50 21° SSW 21:45:29 21° SSW visible
